Regional Weather Roundup
Issued by NWS

Home | Current Version | Previous Version | Graphics & Text | Print | Product List | Glossary On
Versions: 1 2 3 4 5 6 7 8 9 10 11 12 13 14 15 16 17 18 19 20 21 22 23 24 25 26 27 28 29 30 31 32 33 34 35 36 37 38 39 40 41 42 43 44 45 46 47 48 49 50
000
ASUS43 KMKX 032111
RWRWI

WISCONSIN REGIONAL WEATHER ROUNDUP
NATIONAL WEATHER SERVICE MILWAUKEE/SULLIVAN WI
400 PM CDT MON AUG 03 2015

NOTE: "FAIR" INDICATES FEW OR NO CLOUDS BELOW 12,000 FEET WITH NO
SIGNIFICANT WEATHER AND/OR OBSTRUCTIONS TO VISIBILITY.

WIZ001-002-006>008-014>016-023>028-032200-
NORTHWEST WISCONSIN

CITY           SKY/WX    TMP DP  RH WIND       PRES   REMARKS
SUPERIOR ARPT  CLOUDY    71  55  57 W13       29.84S
ASHLAND        PTSUNNY   71  54  54 W10G21    29.84S
HAYWARD        CLOUDY    69  52  54 W9        29.87S
SIREN          CLOUDY    73  49  41 NW14      29.88S
CUMBERLAND     CLOUDY    70  48  46 NW13G20   29.89R
RICE LAKE      PTSUNNY   74  50  43 W10       29.89S
CHETEK         PTSUNNY   73  51  45 W10G21    29.88S
LADYSMITH      CLOUDY    71  54  54 NW14      29.89S
EAU CLAIRE     MOSUNNY   74  48  39 NW14      29.87R
MENOMONIE      MOSUNNY   78  46  32 W14       29.88F
NEW RICHMOND   MOSUNNY   74  47  39 NW12      29.90S
OSCEOLA        PTSUNNY   76  49  38 W12       29.91F
$$

WIZ003>005-009-010-017-018-032200-
NORTH CENTRAL WISCONSIN

CITY           SKY/WX    TMP DP  RH WIND       PRES   REMARKS
MANITOWISH WTR CLOUDY    67  53  59 NW12G18   29.84S
ARBOR VITAE    PTSUNNY   69  54  59 NW8G16    29.84F
WOODRUFF       PTSUNNY   69  54  59 NW8G16    29.84F
RHINELANDER    CLOUDY    70  51  51 NW12G18   29.85R
EAGLE RIVER    PTSUNNY   67  49  52 W12       29.84S
LAND O LAKES   CLOUDY    65  50  57 NW6       29.85S
PHILLIPS       CLOUDY    67  55  65 NW7       29.86S
TOMAHAWK       CLOUDY    68  52  58 W12G17    29.86S
MEDFORD        CLOUDY    69  53  57 W13G20    29.87S
MERRILL        NOT AVBL
$$

WIZ029-030-035-036-043>047-032200-
CENTRAL WISCONSIN

CITY           SKY/WX    TMP DP  RH WIND       PRES   REMARKS
WAUSAU         CLOUDY    74  51  44 NW15      29.83S
MOSINEE        NOT AVBL
MARSHFIELD     PTSUNNY   74  51  44 NW16      29.86S
STEVENS POINT  CLOUDY    73  52  47 W9G16     29.85S
WAUPACA        PTSUNNY   80  48  32 W16G23    29.82S
WAUTOMA        PTSUNNY   80  46  30 NW17G25   29.83S
WISC RAPIDS    PTSUNNY   78  48  34 NW15G25   29.86R
CAMP DOUGLAS   PTSUNNY   77  52  41 W14       29.86R
$$

WIZ011>013-019>022-031-037>040-048>050-032200-
NORTHEAST WISCONSIN

CITY           SKY/WX    TMP DP  RH WIND       PRES   REMARKS
ANTIGO         PTSUNNY   70  52  53 NW14G20   29.84S
SHAWANO        PTSUNNY   74  52  46 NW6       29.80S
OCONTO         CLOUDY    74  52  46 NW9       29.78S
STURGEON BAY   CLOUDY    72  52  49 W9        29.80S
GREEN BAY      PTSUNNY   76  53  44 W17G23    29.79F
MANITOWOC      CLOUDY    77  48  35 MISG      29.80S
APPLETON       PTSUNNY   75  45  33 W18G25    29.82S
CLINTONVILLE   PTSUNNY   77  46  33 W17G23    29.81S
OSHKOSH        PTSUNNY   78  51  38 NW14G21   29.81S
$$

WIZ032>034-041-042-053>061-032200-
SOUTHWEST WISCONSIN

CITY           SKY/WX    TMP DP  RH WIND       PRES   REMARKS
LA CROSSE      SUNNY     81  50  33 NW12G22   29.87F HX  80
SPARTA         MOSUNNY   78  45  30 W12G24    29.88S
VIROQUA        SUNNY     76  51  40 NW13      29.90S
BOSCOBEL       SUNNY     83  50  31 W12       29.88S HX  81
PRAIRIE DU CHI SUNNY     81  44  26 W15G22    29.89S HX  80
PLATTEVILLE    SUNNY     79  50  36 W14       29.90S
$$

WIZ056-057-062-063-064-067-068-032200-
SOUTH CENTRAL WISCONSIN

CITY           SKY/WX    TMP DP  RH WIND       PRES   REMARKS
REEDSBURG      SUNNY     80  49  33 W13G23    29.86S
BARABOO/DELLS  MOSUNNY   80  44  28 W18       29.86S
LONE ROCK      SUNNY     82  48  30 NW13G24   29.87S HX  81
MINERAL POINT  SUNNY     79  45  29 NW12      29.89F
MADISON        MOSUNNY   79  49  34 NW10G17   29.85S
MIDDLETON      SUNNY     81  44  27 W10G20    29.87S HX  80
WATERTOWN      SUNNY     79  51  36 W13G22    29.84S
MONROE         SUNNY     79  46  31 W16G23    29.88F
JANESVILLE     MOSUNNY   82  45  26 W17G23    29.86S HX  80
$$

WIZ051-052-058>065-066-070>072-032200-
SOUTHEAST WISCONSIN

CITY           SKY/WX    TMP DP  RH WIND       PRES   REMARKS
MILWAUKEE      MOSUNNY   81  47  30 W16G25    29.83S HX  80
WAUKESHA       MOSUNNY   79  46  31 NW18G29   29.85S
MILWAUKEE/TIMM MOSUNNY   79  43  27 W16G28    29.83S
RACINE         MOSUNNY   80  47  31 W14G25    29.85S
BURLINGTON     MOSUNNY   78  45  30 W16       29.85S
KENOSHA        SUNNY     79  50  36 NW15G22   29.85S
FOND DU LAC    PTSUNNY   79  51  37 NW14G21   29.82S
SHEBOYGAN      MOSUNNY   78  51  38 W17       29.81S
WEST BEND      MOSUNNY   79  43  27 W16G22    29.82S
JUNEAU         MOSUNNY   77  50  39 W15G24    29.85S
$$

LSZ147-162-032200-
LAKE SUPERIOR

STATION/POSITION TIME  TEMP    WIND        PRES    WAVE
                       AIR SEA DIR/SP/G            HT/PER
                 (UTC) (F)     (DEG/KT/KT) (MB)    (FT/S)
W MID LAKE BUOY  2050   60 56  240/ 12/ 12 1008.3F   2/ 4
DEVILS ISLAND    2100   61     250/ 11/ 14 1009.4F
PORT WING        2000   65     260/  8/ 13 1010.5F
SAXON HARBOR     2000   69     290/ 11     1009.8
$$

LMZ867-665-643>646-032200-
LAKE MICHIGAN

STATION/POSITION TIME  TEMP    WIND        PRES    WAVE
                       AIR SEA DIR/SP/G            HT/PER
                 (UTC) (F)     (DEG/KT/KT) (MB)    (FT/S)
CHAMBERS ISLAND  2000   72     250/  2/  7 1007.8S
S GREEN BAY BUOY 2000   71 72  260/ 10/ 12 1009.8F
N MID LAKE BUOY  2050   66 68  250/ 16/ 21 1007.7R   2/ 3
NORTHPORT PIER   2000   72     230/  4/  7 1007.8S
SISTER BAY       2018   72     250/  9/ 10   N/A
ALGOMA LAKESHORE 2042          260/  6/ 11   N/A
KEWAUNEE LAKESHO 2000   75     300/  8/ 14 1008.3R
SHEBOYGAN LAKESH 2100   76     300/ 19/ 22 1009.3F
PORT WASHINGTON  2000   80     300/ 10/ 19 1009.8F
ATWATER BUOY     2100   68 49  290/ 12/ 17 1011.3R
MILWAUKEE LAKESH 2000   77     290/ 14/ 21   N/A
KENOSHA   LAKESH 2100   79     280/ 14/ 20 1009.8S
$$

TC  - TEMPERATURE IN CELSIUS
VSB - VISIBILITY IN STATUTE MILES
WCI - WIND CHILL INDEX
HX  - HEAT INDEX



USA.gov is the U.S. government's official web portal to all federal, state and local government web resources and services.